Weather History for Warrensburg, MO

Change the Weather History Date:

Tuesday, March 5, 2013

  Actual Average (KSZL) Record (KSZL)
Temperature  
Mean Temperature 32 °F -  
Max Temperature 35 °F 46 °F 73 °F (2009)
Min Temperature 30 °F 27 °F 15 °F (2003)
Degree Days  
Heating Degree Days 32    
Moisture  
Dew Point 22 °F    
Average Humidity 68    
Maximum Humidity 100    
Minimum Humidity 55    
Precipitation  
Precipitation 0.00 in - - ()
Sea Level Pressure  
Sea Level Pressure 30.15 in    
Wind  
Wind Speed 14 mph (WNW)    
Max Wind Speed 21 mph    
Max Gust Speed 32 mph    
Visibility 10 miles    
Events Rain , Snow    
Averages and records for this station are not official NWS values.
T = Trace of Precipitation, MM = Missing Value Source: NWS Daily Summary

Daily Weather History Graph

Daily Weather History Graph

Search for Another Location

Airport:

Trip Planner

Search our weather history database for the weather conditions in past years. The results will help you decide how hot, cold, wet, or windy it might be!

Date:

Astronomy

Mar. 05, 2013 Rise Set
Actual Time 6:41 AM CST 6:12 PM CST
Civil Twilight 6:14 AM CST 6:39 PM CST
Nautical Twilight 5:43 AM CST 7:09 PM CST
Astronomical Twilight 5:13 AM CST 7:40 PM CST
Moon 1:51 AM CST (3/5) 11:55 AM CST (3/5)
Length of Visible Light 12h 24m
Length of Day
11h 31m
Last Quarter, 40% of the Moon is Illuminated
Mar 5
Last Quarter
Mar 11
New
Mar 19
First Quarter
Mar 27
Full
Apr 2
Last Quarter

Hourly Weather History & Observations

Time (CST) Temp. Windchill Dew Point Humidity Pressure Visibility Wind Dir Wind Speed Gust Speed Precip Events Conditions
12:35 AM 35.6 °F 28.6 °F 32.0 °F 87% 29.94 in 10.0 mi NW 9.2 mph - N/A   Overcast
12:55 AM 33.8 °F 25.8 °F 32.0 °F 93% 29.95 in 10.0 mi NW 10.4 mph - N/A   Light Drizzle
1:15 AM 33.8 °F 25.8 °F 32.0 °F 93% 29.94 in 10.0 mi NW 10.4 mph - N/A Rain Light Rain
1:35 AM 33.8 °F 27.0 °F 32.0 °F 93% 29.95 in 7.0 mi NW 8.1 mph - N/A Rain Light Rain
1:55 AM 32.0 °F 27.5 °F 32.0 °F 100% 29.95 in 7.0 mi NW 4.6 mph - N/A   Drizzle
2:15 AM 32.0 °F 26.4 °F 32.0 °F 100% 29.94 in 7.0 mi NW 5.8 mph - N/A Rain Light Rain
3:15 AM 32.0 °F 24.2 °F 32.0 °F 100% 29.99 in 4.0 mi West 9.2 mph - N/A Snow Light Snow
3:35 AM 32.0 °F 23.6 °F 32.0 °F 100% 30.00 in 5.0 mi WNW 10.4 mph 17.3 mph N/A Snow Light Snow
3:55 AM 32.0 °F 22.1 °F 32.0 °F 100% 29.99 in 5.0 mi WNW 13.8 mph - N/A Snow Light Snow
4:15 AM 33.8 °F 23.2 °F 30.2 °F 87% 30.00 in 10.0 mi NW 17.3 mph 23.0 mph N/A   Overcast
4:55 AM 33.8 °F 23.2 °F 28.4 °F 81% 30.03 in 10.0 mi WNW 17.3 mph 20.7 mph N/A   Overcast
5:15 AM 33.8 °F 25.3 °F 28.4 °F 81% 30.04 in 10.0 mi WNW 11.5 mph 24.2 mph N/A   Overcast
5:35 AM 33.8 °F 27.0 °F 28.4 °F 81% 30.04 in 10.0 mi West 8.1 mph - N/A   Overcast
6:15 AM 33.8 °F 23.2 °F 24.8 °F 70% 30.05 in 10.0 mi West 17.3 mph - N/A   Clear
7:15 AM 32.0 °F 21.6 °F 21.2 °F 64% 30.08 in 10.0 mi NW 15.0 mph 24.2 mph N/A   Mostly Cloudy
7:35 AM 32.0 °F 20.5 °F 19.4 °F 60% 30.09 in 10.0 mi WNW 18.4 mph 23.0 mph N/A   Mostly Cloudy
7:55 AM 30.2 °F 19.3 °F 19.4 °F 64% 30.10 in 10.0 mi WNW 15.0 mph 26.5 mph N/A   Scattered Clouds
8:15 AM 30.2 °F 19.3 °F 17.6 °F 60% 30.11 in 10.0 mi WNW 15.0 mph 26.5 mph N/A   Scattered Clouds
8:35 AM 30.2 °F 18.5 °F 17.6 °F 60% 30.12 in 10.0 mi WNW 17.3 mph 25.3 mph N/A   Clear
8:55 AM 30.2 °F 18.1 °F 19.4 °F 64% 30.12 in 10.0 mi WNW 18.4 mph 26.5 mph N/A   Clear
9:15 AM 30.2 °F 17.8 °F 17.6 °F 60% 30.12 in 10.0 mi NW 19.6 mph 26.5 mph N/A   Clear
9:55 AM 32.0 °F 22.1 °F 19.4 °F 60% 30.13 in 10.0 mi West 13.8 mph 20.7 mph N/A   Scattered Clouds
10:15 AM 32.0 °F 20.5 °F 17.6 °F 55% 30.13 in 10.0 mi WNW 18.4 mph 25.3 mph N/A   Clear
10:35 AM 32.0 °F 22.5 °F 17.6 °F 55% 30.13 in 10.0 mi West 12.7 mph - N/A   Scattered Clouds
10:55 AM 32.0 °F 20.1 °F 19.4 °F 60% 30.14 in 10.0 mi WNW 19.6 mph 24.2 mph N/A   Scattered Clouds
11:15 AM 32.0 °F 21.2 °F 17.6 °F 55% 30.15 in 10.0 mi WNW 16.1 mph 24.2 mph N/A   Scattered Clouds
11:35 AM 32.0 °F 20.8 °F 19.4 °F 60% 30.16 in 10.0 mi WNW 17.3 mph 23.0 mph N/A   Mostly Cloudy
11:55 AM 32.0 °F 20.5 °F 19.4 °F 60% 30.16 in 10.0 mi WNW 18.4 mph 23.0 mph N/A   Overcast
12:35 PM 32.0 °F 20.1 °F 19.4 °F 60% 30.16 in 10.0 mi West 19.6 mph 26.5 mph N/A   Overcast
12:55 PM 32.0 °F 20.8 °F 19.4 °F 60% 30.16 in 10.0 mi West 17.3 mph 26.5 mph N/A   Overcast
1:15 PM 33.8 °F 23.5 °F 21.2 °F 60% 30.16 in 10.0 mi West 16.1 mph 25.3 mph N/A   Overcast
1:35 PM 33.8 °F 23.2 °F 21.2 °F 60% 30.16 in 10.0 mi West 17.3 mph 27.6 mph N/A   Mostly Cloudy
1:55 PM 33.8 °F 25.3 °F 21.2 °F 60% 30.16 in 10.0 mi West 11.5 mph 18.4 mph N/A   Overcast
2:15 PM 33.8 °F 22.5 °F 21.2 °F 60% 30.15 in 10.0 mi West 19.6 mph 28.8 mph N/A   Overcast
2:35 PM 33.8 °F 22.5 °F 21.2 °F 60% 30.16 in 10.0 mi West 19.6 mph 28.8 mph N/A   Overcast
2:55 PM 33.8 °F 22.8 °F 21.2 °F 60% 30.16 in 10.0 mi WNW 18.4 mph 28.8 mph N/A   Overcast
3:15 PM 33.8 °F 22.2 °F 21.2 °F 60% 30.17 in 10.0 mi West 20.7 mph 28.8 mph N/A   Mostly Cloudy
3:35 PM 33.8 °F 22.2 °F 21.2 °F 60% 30.17 in 10.0 mi WNW 20.7 mph 32.2 mph N/A   Mostly Cloudy
3:55 PM 33.8 °F 23.5 °F 21.2 °F 60% 30.18 in 10.0 mi WNW 16.1 mph 28.8 mph N/A   Mostly Cloudy
4:15 PM 33.8 °F 23.2 °F 21.2 °F 60% 30.20 in 10.0 mi WNW 17.3 mph 25.3 mph N/A   Mostly Cloudy
4:35 PM 33.8 °F 22.8 °F 21.2 °F 60% 30.20 in 10.0 mi WNW 18.4 mph 24.2 mph N/A   Mostly Cloudy
4:55 PM 33.8 °F 22.5 °F 21.2 °F 60% 30.21 in 10.0 mi WNW 19.6 mph 31.1 mph N/A   Mostly Cloudy
5:15 PM 32.0 °F 20.8 °F 21.2 °F 64% 30.21 in 10.0 mi WNW 17.3 mph 26.5 mph N/A   Scattered Clouds
5:35 PM 32.0 °F 19.8 °F 21.2 °F 64% 30.22 in 10.0 mi WNW 20.7 mph 31.1 mph N/A   Mostly Cloudy
5:55 PM 32.0 °F 20.5 °F 21.2 °F 64% 30.22 in 10.0 mi WNW 18.4 mph 26.5 mph N/A   Mostly Cloudy
6:15 PM 32.0 °F 23.0 °F 21.2 °F 64% 30.22 in 10.0 mi WNW 11.5 mph 18.4 mph N/A   Overcast
6:35 PM 32.0 °F 22.1 °F 21.2 °F 64% 30.23 in 10.0 mi WNW 13.8 mph 19.6 mph N/A   Overcast
6:55 PM 32.0 °F 21.2 °F 21.2 °F 64% 30.24 in 10.0 mi WNW 16.1 mph 23.0 mph N/A   Overcast
7:15 PM 32.0 °F 23.0 °F 21.2 °F 64% 30.25 in 10.0 mi NW 11.5 mph 20.7 mph N/A   Overcast
7:35 PM 32.0 °F 21.6 °F 21.2 °F 64% 30.26 in 10.0 mi WNW 15.0 mph 21.9 mph N/A   Overcast
7:55 PM 32.0 °F 21.2 °F 19.4 °F 60% 30.27 in 10.0 mi NW 16.1 mph 23.0 mph N/A   Overcast
8:15 PM 32.0 °F 22.5 °F 21.2 °F 64% 30.26 in 10.0 mi NW 12.7 mph 19.6 mph N/A   Overcast
8:35 PM 32.0 °F 20.1 °F 19.4 °F 60% 30.27 in 10.0 mi NW 19.6 mph 24.2 mph N/A   Overcast
8:55 PM 30.2 °F 18.1 °F 19.4 °F 64% 30.28 in 10.0 mi WNW 18.4 mph 26.5 mph N/A   Overcast
9:15 PM 30.2 °F 19.3 °F 19.4 °F 64% 30.29 in 10.0 mi NW 15.0 mph 27.6 mph N/A   Overcast
9:35 PM 30.2 °F 19.3 °F 19.4 °F 64% 30.30 in 10.0 mi NW 15.0 mph 25.3 mph N/A   Overcast
9:55 PM 30.2 °F 19.8 °F 19.4 °F 64% 30.30 in 10.0 mi NW 13.8 mph 23.0 mph N/A   Overcast
10:15 PM 30.2 °F 19.3 °F 21.2 °F 69% 30.31 in 10.0 mi NW 15.0 mph - N/A   Overcast
10:35 PM 30.2 °F 18.9 °F 19.4 °F 64% 30.31 in 10.0 mi NW 16.1 mph 21.9 mph N/A   Overcast
10:55 PM 30.2 °F 20.2 °F 19.4 °F 64% 30.31 in 10.0 mi NW 12.7 mph 24.2 mph N/A   Overcast
11:15 PM 30.2 °F 20.2 °F 19.4 °F 64% 30.31 in 10.0 mi NW 12.7 mph 19.6 mph N/A   Overcast
11:35 PM 30.2 °F 19.8 °F 19.4 °F 64% 30.32 in 10.0 mi NW 13.8 mph 19.6 mph N/A   Overcast